| time (UTC) | temp C | wind direction | speed KPH | gust KPH | rain 1hr cm | rain 24hr cm | rain mn cm | humidity % | barometer mb |
| 20260508121526 | 15 | 202 | 9.7 | 14.5 | 0.00 | 0.03 | 0.03 | 56 | 1016.3 |
| 20260508120019 | 15 | 197 | 9.7 | 19.3 | 0.00 | 0.03 | 0.03 | 58 | 1016.3 |
| 20260508114519 | 14 | 197 | 9.7 | 17.7 | 0.00 | 0.03 | 0.03 | 62 | 1016.2 |
| 20260508113020 | 14 | 214 | 8.0 | 17.7 | 0.00 | 0.03 | 0.03 | 61 | 1016.2 |
| 20260508111517 | 14 | 221 | 8.0 | 19.3 | 0.00 | 0.03 | 0.03 | 63 | 1016.0 |
| 20260508110015 | 14 | 220 | 12.9 | 20.9 | 0.00 | 0.03 | 0.03 | 61 | 1016.0 |
| 20260508104519 | 13 | 246 | 11.3 | 22.5 | 0.00 | 0.03 | 0.03 | 64 | 1016.0 |
| 20260508103011 | 14 | 227 | 9.7 | 19.3 | 0.00 | 0.03 | 0.03 | 65 | 1015.8 |
| 20260508101509 | 14 | 196 | 8.0 | 16.1 | 0.00 | 0.03 | 0.03 | 63 | 1015.8 |
| 20260508100008 | 13 | 199 | 9.7 | 16.1 | 0.00 | 0.03 | 0.03 | 62 | 1015.8 |
| 20260508094509 | 13 | 170 | 8.0 | 20.9 | 0.00 | 0.03 | 0.03 | 64 | 1015.7 |
| 20260508093009 | 13 | 196 | 9.7 | 17.7 | 0.00 | 0.03 | 0.03 | 60 | 1015.7 |
| 20260508091501 | 13 | 174 | 11.3 | 24.1 | 0.00 | 0.03 | 0.03 | 58 | 1015.7 |
| 20260508090059 | 12 | 211 | 9.7 | 20.9 | 0.00 | 0.03 | 0.03 | 64 | 1015.4 |
| 20260508084553 | 12 | 214 | 9.7 | 19.3 | 0.00 | 0.03 | 0.03 | 67 | 1015.4 |
| 20260508083106 | 11 | 178 | 8.0 | 20.9 | 0.00 | 0.03 | 0.03 | 70 | 1015.4 |
| 20260508081551 | 11 | 189 | 11.3 | 19.3 | 0.00 | 0.03 | 0.03 | 74 | 1015.3 |
| 20260508080044 | 10 | 174 | 8.0 | 20.9 | 0.00 | 0.03 | 0.03 | 76 | 1015.2 |
| 20260508074549 | 10 | 168 | 8.0 | 19.3 | 0.00 | 0.03 | 0.03 | 78 | 1015.2 |
| 20260508073039 | 10 | 198 | 8.0 | 16.1 | 0.00 | 0.03 | 0.03 | 80 | 1015.1 |
| 20260508071638 | 10 | 143 | 6.4 | 16.1 | 0.00 | 0.03 | 0.03 | 82 | 1014.9 |
| 20260508070033 | 9 | 210 | 8.0 | 16.1 | 0.00 | 0.03 | 0.03 | 84 | 1014.8 |
| 20260508064530 | 9 | 192 | 6.4 | 14.5 | 0.00 | 0.03 | 0.03 | 85 | 1014.7 |
| 20260508063026 | 9 | 205 | 6.4 | 16.1 | 0.00 | 0.03 | 0.03 | 85 | 1014.6 |
| 20260508061524 | 8 | 205 | 3.2 | 12.9 | 0.00 | 0.03 | 0.03 | 85 | 1014.5 |
| 20260508060023 | 8 | 193 | 6.4 | 14.5 | 0.00 | 0.03 | 0.03 | 85 | 1014.3 |
| 20260508054520 | 8 | 170 | 6.4 | 14.5 | 0.00 | 0.03 | 0.03 | 85 | 1014.2 |
| 20260508053016 | 8 | 190 | 4.8 | 11.3 | 0.00 | 0.03 | 0.03 | 85 | 1014.0 |
| 20260508051515 | 8 | 166 | 4.8 | 16.1 | 0.00 | 0.03 | 0.03 | 85 | 1013.9 |
| 20260508050012 | 8 | 186 | 4.8 | 16.1 | 0.00 | 0.03 | 0.03 | 84 | 1013.8 |
| 20260508044510 | 8 | 183 | 8.0 | 20.9 | 0.00 | 0.03 | 0.03 | 84 | 1013.7 |
| 20260508043008 | 8 | 184 | 6.4 | 16.1 | 0.00 | 0.03 | 0.03 | 84 | 1013.7 |
| 20260508041506 | 8 | 179 | 8.0 | 19.3 | 0.00 | 0.03 | 0.03 | 84 | 1013.6 |
| 20260508040009 | 8 | 175 | 11.3 | 20.9 | 0.00 | 0.03 | 0.03 | 83 | 1013.4 |
| 20260508034507 | 8 | 169 | 14.5 | 20.9 | 0.03 | 0.03 | 0.03 | 83 | 1013.3 |
| 20260508033001 | 8 | 175 | 8.0 | 19.3 | 0.03 | 0.03 | 0.03 | 83 | 1013.4 |
| 20260508031559 | 8 | 190 | 9.7 | 20.9 | 0.03 | 0.03 | 0.03 | 82 | 1013.3 |
| 20260508030056 | 8 | 180 | 6.4 | 20.9 | 0.03 | 0.03 | 0.03 | 81 | 1013.3 |
| 20260508024558 | 8 | 180 | 12.9 | 24.1 | 0.00 | 0.00 | 0.00 | 78 | 1013.3 |
| 20260508023052 | 8 | 172 | 14.5 | 25.7 | 0.00 | 0.00 | 0.00 | 78 | 1013.4 |
| 20260508021553 | 8 | 153 | 9.7 | 14.5 | 0.00 | 0.00 | 0.00 | 78 | 1013.3 |
| 20260508020053 | 8 | 167 | 6.4 | 19.3 | 0.00 | 0.00 | 0.00 | 78 | 1013.2 |
| 20260508014549 | 8 | 170 | 12.9 | 24.1 | 0.00 | 0.00 | 0.00 | 78 | 1013.2 |
| 20260508013047 | 8 | 195 | 11.3 | 20.9 | 0.00 | 0.00 | 0.00 | 78 | 1013.2 |
| 20260508011546 | 8 | 202 | 12.9 | 25.7 | 0.00 | 0.00 | 0.00 | 78 | 1013.3 |
| 20260508010044 | 9 | 190 | 16.1 | 25.7 | 0.00 | 0.00 | 0.00 | 78 | 1013.3 |
| 20260508004545 | 8 | 157 | 12.9 | 20.9 | 0.00 | 0.00 | 0.00 | 77 | 1013.3 |
| 20260508003041 | 9 | 186 | 8.0 | 22.5 | 0.00 | 0.00 | 0.00 | 77 | 1013.3 |
| 20260508001540 | 9 | 172 | 12.9 | 24.1 | 0.00 | 0.00 | 0.00 | 77 | 1013.4 |
| 20260508000038 | 9 | 192 | 11.3 | 24.1 | 0.00 | 0.00 | 0.00 | 77 | 1013.4 |
| 20260507234537 | 9 | 199 | 14.5 | 29.0 | 0.00 | 0.00 | 0.00 | 77 | 1013.3 |
| 20260507233037 | 8 | 153 | 9.7 | 16.1 | 0.00 | 0.00 | 0.00 | 77 | 1013.2 |
| 20260507231531 | 8 | 178 | 9.7 | 17.7 | 0.00 | 0.00 | 0.00 | 77 | 1013.3 |
| 20260507230029 | 8 | 188 | 9.7 | 17.7 | 0.00 | 0.00 | 0.00 | 78 | 1013.2 |
| 20260507224534 | 8 | 182 | 4.8 | 16.1 | 0.00 | 0.00 | 0.00 | 79 | 1013.2 |
| 20260507223028 | 9 | 178 | 4.8 | 12.9 | 0.00 | 0.00 | 0.00 | 79 | 1013.2 |
| 20260507221527 | 9 | 190 | 8.0 | 16.1 | 0.00 | 0.00 | 0.00 | 78 | 1013.2 |
| 20260507220026 | 9 | 196 | 8.0 | 20.9 | 0.00 | 0.00 | 0.00 | 78 | 1013.1 |
| 20260507214528 | 9 | 161 | 11.3 | 22.5 | 0.00 | 0.00 | 0.00 | 78 | 1013.0 |
| 20260507213026 | 10 | 165 | 11.3 | 20.9 | 0.00 | 0.00 | 0.00 | 78 | 1013.0 |
| 20260507211525 | 10 | 160 | 8.0 | 17.7 | 0.00 | 0.00 | 0.00 | 76 | 1013.1 |
| 20260507210038 | 10 | 182 | 9.7 | 20.9 | 0.00 | 0.00 | 0.00 | 75 | 1013.1 |
| 20260507204524 | 10 | 177 | 9.7 | 17.7 | 0.00 | 0.00 | 0.00 | 74 | 1013.0 |
| 20260507203023 | 10 | 196 | 8.0 | 22.5 | 0.00 | 0.00 | 0.00 | 73 | 1013.0 |
| 20260507201523 | 10 | 171 | 9.7 | 19.3 | 0.00 | 0.00 | 0.00 | 73 | 1012.8 |
| 20260507200026 | 11 | 175 | 8.0 | 20.9 | 0.00 | 0.00 | 0.00 | 72 | 1012.6 |
| 20260507194526 | 11 | 194 | 6.4 | 17.7 | 0.00 | 0.00 | 0.00 | 72 | 1012.5 |
| 20260507193023 | 11 | 161 | 8.0 | 22.5 | 0.00 | 0.00 | 0.00 | 71 | 1012.4 |
| 20260507191521 | 11 | 147 | 9.7 | 20.9 | 0.00 | 0.00 | 0.00 | 70 | 1012.3 |
| 20260507190023 | 11 | 169 | 9.7 | 17.7 | 0.00 | 0.00 | 0.00 | 68 | 1012.2 |
| 20260507184520 | 11 | 161 | 11.3 | 20.9 | 0.00 | 0.00 | 0.00 | 68 | 1012.3 |
| 20260507183025 | 11 | 188 | 9.7 | 20.9 | 0.00 | 0.00 | 0.00 | 68 | 1012.3 |
| 20260507181519 | 11 | 137 | 4.8 | 16.1 | 0.00 | 0.00 | 0.00 | 68 | 1012.2 |
| 20260507180021 | 11 | 160 | 6.4 | 20.9 | 0.00 | 0.00 | 0.00 | 68 | 1012.2 |
| 20260507174521 | 11 | 191 | 9.7 | 22.5 | 0.00 | 0.00 | 0.00 | 67 | 1012.3 |
| 20260507173019 | 11 | 171 | 12.9 | 22.5 | 0.00 | 0.00 | 0.00 | 67 | 1012.4 |
| 20260507171516 | 12 | 177 | 11.3 | 20.9 | 0.00 | 0.00 | 0.00 | 67 | 1012.3 |
| 20260507170016 | 12 | 167 | 11.3 | 24.1 | 0.00 | 0.00 | 0.00 | 67 | 1012.4 |
| 20260507164515 | 12 | 196 | 14.5 | 25.7 | 0.00 | 0.00 | 0.00 | 67 | 1012.5 |
| 20260507163014 | 12 | 159 | 12.9 | 24.1 | 0.00 | 0.00 | 0.00 | 68 | 1012.5 |
| 20260507161514 | 12 | 167 | 14.5 | 32.2 | 0.00 | 0.00 | 0.00 | 69 | 1012.6 |
| 20260507160016 | 12 | 157 | 11.3 | 22.5 | 0.00 | 0.00 | 0.00 | 69 | 1012.5 |
| 20260507154521 | 12 | 163 | 8.0 | 24.1 | 0.00 | 0.00 | 0.00 | 70 | 1012.5 |
| 20260507153027 | 12 | 175 | 11.3 | 19.3 | 0.00 | 0.00 | 0.00 | 69 | 1012.7 |
| 20260507151509 | 12 | 182 | 11.3 | 24.1 | 0.00 | 0.00 | 0.00 | 68 | 1012.7 |
| 20260507150009 | 12 | 186 | 11.3 | 29.0 | 0.00 | 0.00 | 0.00 | 72 | 1012.8 |
| 20260507144509 | 12 | 167 | 11.3 | 20.9 | 0.00 | 0.00 | 0.00 | 73 | 1012.8 |
| 20260507143009 | 12 | 161 | 11.3 | 20.9 | 0.00 | 0.00 | 0.00 | 73 | 1012.9 |
| 20260507141506 | 11 | 168 | 8.0 | 16.1 | 0.00 | 0.00 | 0.00 | 75 | 1013.2 |
| 20260507140010 | 11 | 182 | 9.7 | 20.9 | 0.00 | 0.00 | 0.00 | 72 | 1013.3 |
| 20260507134506 | 11 | 187 | 8.0 | 19.3 | 0.00 | 0.00 | 0.00 | 73 | 1013.3 |
| 20260507133005 | 11 | 231 | 9.7 | 19.3 | 0.00 | 0.00 | 0.00 | 74 | 1013.4 |
| 20260507131508 | 11 | 172 | 9.7 | 19.3 | 0.00 | 0.00 | 0.00 | 75 | 1013.4 |
| 20260507130012 | 11 | 205 | 6.4 | 19.3 | 0.00 | 0.00 | 0.00 | 76 | 1013.4 |
| 20260507124503 | 10 | 179 | 11.3 | 20.9 | 0.00 | 0.00 | 0.00 | 74 | 1013.5 |
| 20260507123002 | 11 | 182 | 9.7 | 20.9 | 0.00 | 0.00 | 0.00 | 71 | 1013.5 |